STARLINK-35999

Last updated on Fri Dec 19 2025 00:02:08 GMT+0000 (Coordinated Universal Time)

1 66951U 25286AC 25352.58336806 -.01536054 00000+0 -81406-2 0 9992 2 66951 53.1551 20.9545 0001093 70.8527 91.8119 15.82646223 2938
UTC large
Height (km)
Speed (km/s)
/
Latitude / Longitude
Inclination (degrees)
Orbital Period (minutes)
Azimuth
Elevation
Range (km)
Doppler Factor

Next 0 passes for location: London (51.5072 / 0.1276)

Sorry there are no passes over London.